Cloud_Cover
2 0 0 0 0 0 0 0 0 0 0 2 7 90 100 40 77 16 3 5 4 1 5 0 0 0 0 0 0 0 0 5 2
19 91 0 0 0 0 0 0 0 2 5 5 5 100 61 100 100 100 36 5 5 4 2 5 5 5 4 0 0 0 5 0 1
0 0 0 0 0 3 4 0 5 10 2 54 100 100 100 100 97 91 42 3 7 5 2 5 5 5 25 20 5 5 5 5 4
0 0 0 1 3 5 5 4 5 8 63 92 100 100 100 100 100 100 64 62 50 8 1 5 5 5 5 16 17 5 5 5 0
0 0 0 0 3 30 5 5 5 5 100 100 100 100 100 100 100 100 100 100 7 1 2 5 5 5 5 5 5 25 5 0 0
0 0 0 0 3 32 14 5 13 88 100 100 100 100 100 100 100 100 100 4 0 0 5 5 5 0 0 0 0 2 60 11 6
0 0 0 0 0 5 99 56 6 100 100 100 100 100 100 100 100 100 100 98 5 1 5 5 5 0 0 0 0 0 0 0 1
0 0 0 1 0 3 99 58 5 99 100 100 100 100 100 100 100 100 100 11 4 0 5 5 5 3 0 0 0 0 4 3 0
5 5 14 4 5 5 88 100 94 83 100 100 100 100 100 100 100 100 5 3 0 0 5 3 5 5 11 3 0 0 0 0 0
5 5 18 5 28 18 21 8 99 100 100 63 100 100 100 100 100 100 100 100 98 79 78 7 25 9 96 100 89 8 1 0 0
5 5 16 37 40 89 86 46 45 97 100 100 100 100 100 100 39 47 21 27 37 78 56 8 35 94 100 86 57 100 98 46 1
4 5 7 84 100 79 88 100 100 100 100 40 17 48 51 71 5 5 2 5 0 24 7 26 56 16 12 54 96 99 20 94 99
4 51 100 100 97 98 81 7 68 100 98 22 3 13 4 2 2 0 0 0 4 84 56 20 37 18 0 1 1 1 2 0 0
63 88 23 0 0 0 19 70 44 14 30 39 74 40 2 0 0 0 3 26 5 9 4 99 60 0 2 2 22 43 28 28 8
0 0 0 0 0 0 0 0 0 0 1 1 0 0 1 4 19 30 63 5 1 0 14 37 24 2 5 5 79 94 28 5 5
5 5 4 0 2 4 1 5 5 5 0 5 53 87 68 33 31 7 18 2 0 0 0 0 0 0 0 1 3 2 0 0 0
15 4 1 0 0 0 3 5 5 5 5 4 5 5 59 11 5 4 2 1 2 5 5 5 5 5 5 4 3 0 0 0 0
5 0 0 2 0 1 5 4 3 4 1 0 0 1 2 0 5 2 4 4 5 9 5 5 5 5 5 0 0 0 0 0 0
0 4 0 0 2 4 5 5 5 5 25 7 5 2 0 0 1 5 12 12 69 95 63 23 18 5 5 5 1 0 0 0 0
5 5 2 0 0 1 0 3 2 2 0 0 0 5 5 2 0 0 0 0 2 5 20 99 71 5 0 0 0 0 0 0 0